Location: Mittersill
(44.1801°N, 71.7142°W)
Time: 02:38:52
(UTC+00:00)

Cosmos 2237 Rocket - Pass Details

Date: 10 September 2024
Orbit: 835 x 848 km, 71.0° (Epoch: 04 October)

Event Time Altitude Azimuth Distance (km) Brightness Sun altitude
Rises 23:34:26 0° 152° (SSE) 3,372 4.9 -5.9°
Reaches altitude 10° 23:37:59 10° 129° (SE) 2,443 4.1 -6.6°
Maximum altitude 23:40:54 15° 97° (E) 2,138 3.7 -7.1°
Drops below altitude 10° 23:43:50 10° 66° (ENE) 2,451 4.2 -7.6°
Sets 23:47:23 0° 43° (NE) 3,391 5.1 -8.2°
